Benton Harbor, MI

2:53 PM EST on February 13, 2016 (GMT -0500)
Southwest Michigan Regional

Weather History for KBEH - November, 2012

Change the Weather History Date:

Friday, November 23, 2012

  Actual Average Record
Temperature  
Mean Temperature 44 °F -  
Max Temperature 55 °F 45 °F 66 °F (1999)
Min Temperature 33 °F 29 °F 11 °F (1971)
Degree Days  
Heating Degree Days 21    
Moisture  
Dew Point 28 °F    
Average Humidity 68    
Maximum Humidity 79    
Minimum Humidity 60    
Precipitation  
Precipitation 0.00 in - - ()
Sea Level Pressure  
Sea Level Pressure 29.96 in    
Wind  
Wind Speed 22 mph (WNW)    
Max Wind Speed 30 mph    
Max Gust Speed 43 mph    
Visibility 10 miles    
Events Snow    
Averages and records for this station are not official NWS values.
T = Trace of Precipitation, MM = Missing Value Source: NWS Daily Summary

Daily Weather History Graph

Daily Weather History Graph

Search for Another Location

Airport or City:

Trip Planner

Search our weather history database for the weather conditions in past years. The results will help you decide how hot, cold, wet, or windy it might be!

Date:

Astronomy

Nov. 23, 2012 Rise Set
Actual Time 7:46 AM EST 5:18 PM EST
Civil Twilight 7:15 AM EST 5:48 PM EST
Nautical Twilight 6:41 AM EST 6:23 PM EST
Astronomical Twilight 6:07 AM EST 6:56 PM EST
Moon 2:36 PM EST (11/23) 3:00 AM EST (11/23)
Length of Visible Light 10h 33m
Length of Day
9h 31m
Waxing Gibbous, 79% of the Moon is Illuminated
Nov 23
Waxing Gibbous
Nov 28
Full
Dec 6
Last Quarter
Dec 13
New
Dec 20
First Quarter

Hourly Weather History & Observations

Time (EST) Temp. Windchill Dew Point Humidity Pressure Visibility Wind Dir Wind Speed Gust Speed Precip Events Conditions
12:49 AM 55.4 °F - 48.2 °F 77% 29.77 in 8.0 mi SW 21.9 mph 38.0 mph N/A   Mostly Cloudy
12:53 AM 55.9 °F - 48.9 °F 77% 29.78 in 8.0 mi WSW 20.7 mph 38.0 mph N/A   Mostly Cloudy
1:51 AM 46.4 °F 37.5 °F 39.2 °F 76% 29.82 in 10.0 mi West 27.6 mph 38.0 mph N/A   Scattered Clouds
1:53 AM 46.0 °F 37.2 °F 39.9 °F 79% 29.83 in 10.0 mi West 26.5 mph 38.0 mph N/A   Partly Cloudy
2:30 AM 44.6 °F 36.4 °F 37.4 °F 76% 29.84 in 10.0 mi West 20.7 mph 36.8 mph N/A   Mostly Cloudy
2:53 AM 44.1 °F 35.0 °F 37.0 °F 76% 29.86 in 10.0 mi West 24.2 mph 33.4 mph N/A   Overcast
3:53 AM 42.1 °F 33.1 °F 35.1 °F 76% 29.87 in 10.0 mi West 20.7 mph 34.5 mph N/A   Overcast
4:53 AM 41.0 °F 31.6 °F 33.1 °F 73% 29.86 in 10.0 mi West 20.7 mph 31.1 mph N/A   Overcast
5:53 AM 41.0 °F 30.9 °F 33.1 °F 73% 29.86 in 10.0 mi West 24.2 mph 31.1 mph N/A   Overcast
6:53 AM 41.0 °F 30.7 °F 30.9 °F 67% 29.87 in 10.0 mi West 25.3 mph 34.5 mph N/A   Overcast
7:26 AM 39.2 °F 28.5 °F 30.2 °F 70% 29.86 in 10.0 mi West 24.2 mph 33.4 mph N/A   Overcast
7:53 AM 41.0 °F 30.9 °F 30.9 °F 67% 29.86 in 10.0 mi West 24.2 mph 32.2 mph N/A   Overcast
8:01 AM 41.0 °F 30.9 °F 30.2 °F 65% 29.86 in 10.0 mi West 24.2 mph 32.2 mph N/A   Overcast
8:50 AM 37.4 °F 26.1 °F 26.6 °F 65% 29.89 in 10.0 mi West 24.2 mph 42.6 mph N/A   Overcast
8:53 AM 37.0 °F 25.4 °F 26.1 °F 65% 29.90 in 10.0 mi West 25.3 mph 42.6 mph N/A   Overcast
9:05 AM 35.6 °F 23.7 °F 26.6 °F 70% 29.90 in 10.0 mi West 24.2 mph 36.8 mph N/A   Overcast
9:53 AM 35.1 °F 21.8 °F 25.0 °F 67% 29.91 in 10.0 mi West 29.9 mph 40.3 mph N/A   Overcast
10:53 AM 33.1 °F 20.3 °F 26.1 °F 75% 29.95 in 7.0 mi West 24.2 mph 35.7 mph 0.00 in Snow Light Snow
11:53 AM 33.1 °F 21.5 °F 23.0 °F 66% 29.96 in 10.0 mi WNW 19.6 mph 35.7 mph 0.00 in   Overcast
12:00 PM 33.8 °F 22.5 °F 23.0 °F 65% 29.95 in 10.0 mi WNW 19.6 mph 32.2 mph N/A   Overcast
12:12 PM 33.8 °F 21.9 °F 21.2 °F 60% 29.95 in 10.0 mi WNW 21.9 mph 34.5 mph N/A   Overcast
12:22 PM 33.8 °F 21.9 °F 23.0 °F 65% 29.95 in 10.0 mi West 21.9 mph 36.8 mph N/A   Overcast
12:35 PM 33.8 °F 22.2 °F 21.2 °F 60% 29.95 in 10.0 mi WNW 20.7 mph 33.4 mph N/A   Overcast
12:53 PM 33.1 °F 21.2 °F 21.9 °F 64% 29.97 in 10.0 mi WNW 20.7 mph 40.3 mph N/A   Overcast
1:53 PM 33.1 °F 20.6 °F 21.9 °F 64% 30.00 in 10.0 mi WNW 23.0 mph 34.5 mph N/A   Overcast
2:06 PM 33.8 °F 21.9 °F 23.0 °F 65% 29.98 in 10.0 mi WNW 21.9 mph 31.1 mph N/A   Overcast
2:53 PM 33.1 °F 21.5 °F 21.0 °F 61% 30.02 in 10.0 mi WNW 19.6 mph 32.2 mph N/A   Overcast
3:53 PM 33.1 °F 21.2 °F 21.0 °F 61% 30.05 in 10.0 mi WNW 20.7 mph 33.4 mph N/A   Overcast
4:53 PM 33.1 °F 21.9 °F 21.9 °F 64% 30.09 in 10.0 mi WNW 18.4 mph 27.6 mph N/A   Overcast
5:53 PM 33.1 °F 21.2 °F 21.9 °F 64% 30.11 in 10.0 mi WNW 20.7 mph 38.0 mph N/A   Overcast
6:53 PM 33.1 °F 23.0 °F 23.0 °F 66% 30.13 in 10.0 mi WNW 15.0 mph 25.3 mph N/A   Overcast
7:28 PM 33.8 °F 23.5 °F 23.0 °F 65% 30.11 in 10.0 mi WNW 16.1 mph 28.8 mph N/A   Overcast
7:53 PM 33.1 °F 23.9 °F 24.1 °F 70% 30.14 in 10.0 mi NW 12.7 mph 28.8 mph N/A   Overcast
8:53 PM 34.0 °F 24.2 °F 24.1 °F 67% 30.15 in 10.0 mi WNW 15.0 mph 26.5 mph N/A   Overcast
9:53 PM 34.0 °F 24.6 °F 24.1 °F 67% 30.15 in 10.0 mi NW 13.8 mph 27.6 mph N/A   Overcast
10:53 PM 33.1 °F 23.0 °F 24.1 °F 70% 30.15 in 10.0 mi WNW 15.0 mph 23.0 mph N/A   Overcast
11:53 PM 33.1 °F 24.4 °F 24.1 °F 70% 30.15 in 10.0 mi NW 11.5 mph 23.0 mph N/A   Overcast